Location: Lombard
(41.8800°N, 88.0080°W)
Time: 04:57:39
(UTC-05:00)

Vanguard 2 Rocket - Pass Details

Date: 26 February 2024
Orbit: 555 x 3307 km, 32.9° (Epoch: 12 April)

Event Time Altitude Azimuth Distance (km) Brightness Sun altitude
Rises 15:06:43 0° 250° (WSW) 4,303 11.5 24.6°
Reaches altitude 10° 15:09:11 10° 246° (WSW) 3,614 11.6 24.2°
Maximum altitude 15:18:48 57° 171° (S) 2,441 9.7 22.8°
Drops below altitude 10° 15:35:06 10° 100° (E) 5,877 10.7 20.3°
Sets 15:40:22 0° 97° (E) 7,123 11.0 19.5°
